(150719) = 2001 QQ17

Discovered at Socorro on 2001-08-16 by LINEAR.

Orbit

Orbit type: Main Belt

Note: WebGL enabled browser required.

epoch2023-09-13.0
epoch JD2460200.5
perihelion date2022-10-23.63802
perihelion JD2459876.13802
argument of perihelion (°)258.38204
ascending node (°)47.58050
inclination (°)2.99519
eccentricity0.1776517
perihelion distance (AU)1.9155153
Tisserand w.r.t. Jupiter3.5
ΔV w.r.t. Earth (km/sec)8.6
semimajor axis (AU)2.3293235
mean anomaly (°)89.92678
mean daily motion (°/day)0.27724210
aphelion distance (AU)2.743
period (years)3.56
P-vector [x]0.58626842
P-vector [y]-0.72142400
P-vector [z]-0.36856037
Q-vector [x]0.80919800
Q-vector [y]0.54315304
Q-vector [z]0.22401647
absolute magnitude17.0
phase slope0.15
uncertainty0
referenceMPEC 2024-A65
observations used380
oppositions14
arc length (days)8182
first opposition used2001
last opposition used2024
residual rms (arc-secs)0.76
perturbers coarse indicatorM-v
perturbers precise indicator003Ek
first observation date used2001-08-11.0
last observation date used2024-01-05.0
computer nameMPCLINUX
JD of orbit computation2456731.426861
perihelion JD uncertainty (days)7.2052E-05
argument of perihelion uncertainty (°)7.4002E-05
ascending node uncertainty (°)7.2159E-05
inclination uncertainty (°)4.6119E-06
eccentricity uncertainty 3.1110E-08
perihelion distance uncertainty (AU)7.1273E-08
Minimum Orbit Intersection Distances (in AU)
for orbit epoch: 2460200.5, reference: E2024-A65
Mercury1.47558
Venus1.18734
Earth0.90271
Mars0.50785
Jupiter2.48773
Saturn6.36443
Uranus15.7761
Neptune27.4061

Observations

400 total observations over interval: 2001 08 11.41898 – 2024 01 05.268814
These data are available for download (format description).

Date (UT) J2000 RA J2000 Dec Magn Location Ref
2001 08 11.41898 22 25 11.32 -16 30 23.8 19.4   608 – Haleakala-AMOS MPS 33514
2001 08 11.42948 22 25 10.78 -16 30 26.9 19.8   608 – Haleakala-AMOS MPS 33514
2001 08 11.44004 22 25 10.26 -16 30 29.8 20.4   608 – Haleakala-AMOS MPS 33514
2001 08 16.29557 22 21 06.92 -16 53 59.9 18.4   704 – Lincoln Laboratory ETS, New Mexico MPS 33514
2001 08 16.30773 22 21 06.28 -16 54 03.3 18.9   704 – Lincoln Laboratory ETS, New Mexico MPS 33514
2001 08 16.32092 22 21 05.54 -16 54 06.7 18.8   704 – Lincoln Laboratory ETS, New Mexico MPS 33514
2001 08 16.33339 22 21 04.80 -16 54 10.0 18.7   704 – Lincoln Laboratory ETS, New Mexico MPS 33514
2001 08 18.28740 22 19 21.66 -17 03 19.3 18.4   704 – Lincoln Laboratory ETS, New Mexico MPS 33514
2001 08 18.30013 22 19 20.88 -17 03 22.5 18.8   704 – Lincoln Laboratory ETS, New Mexico MPS 33514
2001 08 18.32613 22 19 19.45 -17 03 28.3 18.8   704 – Lincoln Laboratory ETS, New Mexico MPS 33514
2001 08 19.27533 22 18 28.63 -17 07 47.9 18.0   704 – Lincoln Laboratory ETS, New Mexico MPS 33514
2001 08 19.28800 22 18 27.91 -17 07 51.5 18.9   704 – Lincoln Laboratory ETS, New Mexico MPS 33514
2001 08 19.30068 22 18 27.14 -17 07 54.8 18.9   704 – Lincoln Laboratory ETS, New Mexico MPS 33514
2001 08 19.31351 22 18 26.44 -17 07 58.4 18.8   704 – Lincoln Laboratory ETS, New Mexico MPS 33514
2001 08 19.32616 22 18 25.73 -17 08 01.4 19.0   704 – Lincoln Laboratory ETS, New Mexico MPS 33514
2001 08 24.48776 22 13 44.55 -17 30 00.0 19.1   608 – Haleakala-AMOS MPS 33514
2001 08 24.49853 22 13 43.95 -17 30 02.7 19.3   608 – Haleakala-AMOS MPS 33514
2001 08 24.50969 22 13 43.27 -17 30 04.8 19.0   608 – Haleakala-AMOS MPS 33514
2001 08 25.24034 22 13 03.96 -17 32 56.7 18.5   704 – Lincoln Laboratory ETS, New Mexico MPS 33514
2001 08 25.25533 22 13 03.09 -17 33 00.2 18.5   704 – Lincoln Laboratory ETS, New Mexico MPS 33514
2001 08 25.25672 22 13 03.08 -17 33 00.3 18.0 R 699 – Lowell Observatory-LONEOS MPS 33514
2001 08 25.27216 22 13 02.17 -17 33 03.9 18.5   704 – Lincoln Laboratory ETS, New Mexico MPS 33514
2001 08 25.27241 22 13 02.15 -17 33 04.6   699 – Lowell Observatory-LONEOS MPS 33514
2001 08 25.28739 22 13 01.30 -17 33 07.5 18.8   704 – Lincoln Laboratory ETS, New Mexico MPS 33514
2001 08 25.28812 22 13 01.28 -17 33 07.9   699 – Lowell Observatory-LONEOS MPS 33514
2001 08 25.30220 22 13 00.42 -17 33 11.1 18.6   704 – Lincoln Laboratory ETS, New Mexico MPS 33514
2001 08 25.30378 22 13 00.34 -17 33 11.9   699 – Lowell Observatory-LONEOS MPS 33514
2001 08 27.24486 22 11 15.59 -17 40 21.2 18.5   644 – Palomar Mountain/NEAT MPS 34602
2001 08 27.25552 22 11 14.99 -17 40 23.5 18.4   644 – Palomar Mountain/NEAT MPS 34602
2001 08 27.26624 22 11 14.37 -17 40 25.8 18.4   644 – Palomar Mountain/NEAT MPS 34602
2001 09 06.14730 22 02 59.49 -18 07 08.0 19.7   644 – Palomar Mountain/NEAT MPS 34602
2001 09 06.17032 22 02 58.39 -18 07 09.9 19.8   644 – Palomar Mountain/NEAT MPS 34602
2001 09 06.19222 22 02 57.32 -18 07 12.7 19.3   644 – Palomar Mountain/NEAT MPS 34602
2001 09 10.24568 22 00 05.75 -18 12 47.0 18.5 R 699 – Lowell Observatory-LONEOS MPS 34602
2001 09 10.26923 22 00 04.69 -18 12 49.7   699 – Lowell Observatory-LONEOS MPS 34602
2001 09 10.29267 22 00 03.67 -18 12 50.2   699 – Lowell Observatory-LONEOS MPS 34602
2001 09 10.31610 22 00 02.68 -18 12 51.5   699 – Lowell Observatory-LONEOS MPS 34602
2001 09 11.19543 21 59 29.14 -18 13 37.0 19.4   704 – Lincoln Laboratory ETS, New Mexico MPS 34602
2001 09 11.20957 21 59 28.60 -18 13 37.5 19.2   704 – Lincoln Laboratory ETS, New Mexico MPS 34602
2001 09 11.22433 21 59 27.93 -18 13 37.9 18.9   704 – Lincoln Laboratory ETS, New Mexico MPS 34602
2001 09 11.25250 21 59 26.83 -18 13 40.5 19.7   704 – Lincoln Laboratory ETS, New Mexico MPS 34602
2004 04 15.30091 14 05 27.53 -10 58 31.7 19.3 R 699 – Lowell Observatory-LONEOS MPS 135904
2004 04 15.32033 14 05 26.07 -10 58 27.5   699 – Lowell Observatory-LONEOS MPS 135904
2004 04 15.33976 14 05 24.89 -10 58 22.1   699 – Lowell Observatory-LONEOS MPS 135904
2004 04 15.35913 14 05 23.64 -10 58 17.2   699 – Lowell Observatory-LONEOS MPS 135904
2004 04 21.36791 13 59 19.28 -10 34 22.3 19.3   704 – Lincoln Laboratory ETS, New Mexico MPS 135904
2004 04 21.37896 13 59 18.58 -10 34 19.9 19.6   704 – Lincoln Laboratory ETS, New Mexico MPS 135904
2004 04 21.39001 13 59 17.89 -10 34 17.8 19.7   704 – Lincoln Laboratory ETS, New Mexico MPS 135904
2004 04 21.41226 13 59 16.44 -10 34 11.8 19.8   704 – Lincoln Laboratory ETS, New Mexico MPS 135904
2004 05 15.17453 13 36 52.64 -09 10 53.9 21.2 V 691 – Steward Observatory, Kitt Peak-Spacewatch MPS 135904
2004 05 15.20310 13 36 51.31 -09 10 50.2 21.2 V 691 – Steward Observatory, Kitt Peak-Spacewatch MPS 135904
2004 05 15.23178 13 36 49.95 -09 10 45.8 20.9 V 691 – Steward Observatory, Kitt Peak-Spacewatch MPS 135904
2004 05 23.15558 13 31 48.54 -08 56 31.9 19.8 V 691 – Steward Observatory, Kitt Peak-Spacewatch MPS 135904
2004 05 23.18265 13 31 47.68 -08 56 29.5 20.1 V 691 – Steward Observatory, Kitt Peak-Spacewatch MPS 135904
2004 05 23.21052 13 31 46.76 -08 56 27.4 20.4 V 691 – Steward Observatory, Kitt Peak-Spacewatch MPS 135904
2005 10 01.39528 03 43 29.82 +18 58 38.5 20.2 V G96 – Mt. Lemmon Survey MPS 143506
2005 10 01.40207 03 43 29.74 +18 58 38.6 20.0 V G96 – Mt. Lemmon Survey MPS 143506
2005 10 01.40881 03 43 29.64 +18 58 38.9 20.0 V G96 – Mt. Lemmon Survey MPS 143506
2005 10 01.41560 03 43 29.53 +18 58 39.0 20.0 V G96 – Mt. Lemmon Survey MPS 143506
2005 10 24.32522 03 29 40.66 +18 41 26.2 20.0 V 691 – Steward Observatory, Kitt Peak-Spacewatch MPS 145853
2005 10 24.34259 03 29 39.66 +18 41 24.2 20.1 V 691 – Steward Observatory, Kitt Peak-Spacewatch MPS 145853
2005 10 24.35997 03 29 38.64 +18 41 22.4 20.1 V 691 – Steward Observatory, Kitt Peak-Spacewatch MPS 145853
2005 10 27.35986 03 26 44.80 +18 35 22.3 19.7 V G96 – Mt. Lemmon Survey MPS 145853
2005 10 27.36659 03 26 44.41 +18 35 21.4 19.9 V G96 – Mt. Lemmon Survey MPS 145853
2005 10 27.37353 03 26 43.94 +18 35 20.6 19.7 V G96 – Mt. Lemmon Survey MPS 145853
2005 10 27.38038 03 26 43.51 +18 35 19.6 19.8 V G96 – Mt. Lemmon Survey MPS 145853
2005 11 10.23542 03 11 42.76 +17 59 19.9 19.8 V 691 – Steward Observatory, Kitt Peak-Spacewatch MPS 149233
2005 11 10.25275 03 11 41.56 +17 59 16.9 19.8 V 691 – Steward Observatory, Kitt Peak-Spacewatch MPS 149233
2005 11 10.27007 03 11 40.36 +17 59 13.5 19.7 V 691 – Steward Observatory, Kitt Peak-Spacewatch MPS 149233
2005 11 25.30628 02 55 45.33 +17 15 11.8 19.6 V G96 – Mt. Lemmon Survey MPS 151852
2005 11 25.31516 02 55 44.79 +17 15 10.2 19.6 V G96 – Mt. Lemmon Survey MPS 151852
2005 11 25.32363 02 55 44.29 +17 15 09.0 19.6 V G96 – Mt. Lemmon Survey MPS 151852
2005 11 25.33157 02 55 43.86 +17 15 07.6 19.5 V G96 – Mt. Lemmon Survey MPS 151852
2005 11 26.29176 02 54 50.07 +17 12 32.0 19.5 V G96 – Mt. Lemmon Survey MPS 151852
2005 11 26.29862 02 54 49.71 +17 12 31.2 19.8 V G96 – Mt. Lemmon Survey MPS 151852
2005 11 26.30563 02 54 49.32 +17 12 30.4 19.6 V G96 – Mt. Lemmon Survey MPS 151852
2005 11 26.31271 02 54 48.88 +17 12 28.8 19.9 V G96 – Mt. Lemmon Survey MPS 151852
2005 12 04.07884 02 48 23.09 +16 53 58.8 20.3 V 691 – Steward Observatory, Kitt Peak-Spacewatch MPS 153439
2005 12 04.09986 02 48 22.18 +16 53 56.7 20.4 V 691 – Steward Observatory, Kitt Peak-Spacewatch MPS 153439
2005 12 04.12422 02 48 21.02 +16 53 53.4 21.5 V 691 – Steward Observatory, Kitt Peak-Spacewatch MPS 153439
2005 12 06.06500 02 47 00.10 +16 50 06.1 20.6 V 691 – Steward Observatory, Kitt Peak-Spacewatch MPS 153439
2005 12 06.08603 02 46 59.22 +16 50 03.9 20.5 V 691 – Steward Observatory, Kitt Peak-Spacewatch MPS 153439
2005 12 06.10706 02 46 58.35 +16 50 01.9 20.5 V 691 – Steward Observatory, Kitt Peak-Spacewatch MPS 153439
2007 01 26.43701 10 31 31.78 +14 05 29.5 21.2 V 691 – Steward Observatory, Kitt Peak-Spacewatch MPS 196960
2007 01 26.45509 10 31 30.99 +14 05 34.5 21.2 V 691 – Steward Observatory, Kitt Peak-Spacewatch MPS 196960
2007 01 26.47342 10 31 30.23 +14 05 40.1 21.3 V 691 – Steward Observatory, Kitt Peak-Spacewatch MPS 196960
2007 01 27.47087 10 30 48.46 +14 10 39.6 20.8 V 691 – Steward Observatory, Kitt Peak-Spacewatch MPS 197988
